Tracking 22124 objects as of 23-Jan-2021
HD Live streaming from Space Station
objects crossing your sky now

COSMOS 637

Track COSMOS 637 now!
COSMOS 637 is classified as:


NORAD ID: 7229
Int'l Code: 1974-017A
Perigee: 35,479.7 km
Apogee: 35,827.2 km
Inclination: 5.8 °
Period: 1,428.9 minutes
Semi major axis: 42024 km
RCS: 2.5118 m2 (large)
Launch date: March 26, 1974
Source: Commonwealth of Independent States (former USSR) (CIS)
Launch site: TYURATAM MISSILE AND SPACE COMPLEX (TTMTR)
aabbcc
Your satellite tracking list
Your tracking list is empty




NASA's NSSDC Master Catalog

Two Line Element Set (TLE):
1 07229U 74017A   21022.85055743  .00000135  00000-0  00000-0 0  9992
2 07229   5.8021 291.1223 0041345   9.4233 136.2482  1.00774311102335
Source of the keplerian elements: AFSPC